This demonstration page uses our WeatherBlox Daily Observations layout. Learn more.

Hourly Observations for August 9, 2017

Temp ( °F °C ) Dew Point ( °F °C ) Humidity (%) Winds ( mph kmh ) Pressure ( in mb ) Visibility ( mi km ) Precip ( " mm )
12:54 am 00:54 Clear 64 17.8 60 15.6 87 87 S 7 11 30.11 1020 10 16.0934 0 0
1:54 am 01:54 Clear 63 17.2 60 15.6 90 90 SSE 6 9 30.1 1019 10 16.0934 0 0
2:54 am 02:54 Clear 61 16.1 59 15 93 93 S 7 11 30.09 1019 10 16.0934 0 0
3:54 am 03:54 Clear 63 17.2 60 15.6 90 90 SSE 8 13 30.09 1019 10 16.0934 0 0
4:54 am 04:54 Mostly Clear 63 17.2 59 15 87 87 SE 6 9 30.09 1019 10 16.0934 0 0
5:54 am 05:54 Mostly Clear 62 16.7 59 15 90 90 S 3 6 30.08 1019 10 16.0934 0 0
6:54 am 06:54 Sunny 61 16.1 59 15 93 93 S 7 11 30.09 1019 10 16.0934 0 0
7:54 am 07:54 Mostly Cloudy 66 18.9 61 16.1 84 84 S 7 11 30.09 1019 10 16.0934 0 0
8:54 am 08:54 Cloudy 69 20.6 62 16.7 78 78 SSW 9 15 30.09 1019 10 16.0934 0 0
9:54 am 09:54 Sunny 71 21.7 62 16.7 73 73 SSW 14 22 30.09 1019 10 16.0934 0 0
10:54 am 10:54 Partly Cloudy with Light Rain 71 21.7 63 17.2 76 76 SSW 13 20 30.09 1019 10 16.0934 0 0.0254
11:54 am 11:54 Mostly Cloudy 73 22.8 63 17.2 71 71 SW 10 17 30.08 1019 10 16.0934 0 0.0254
12:54 pm 12:54 Cloudy with Light Rain 72 22.2 64 17.8 76 76 WSW 8 13 30.09 1019 10 16.0934 0 0.0254
1:54 pm 13:54 Cloudy 73 22.8 66 18.9 79 79 SSW 9 15 30.07 1018 10 16.0934 0 0.0254
2:54 pm 14:54 Cloudy with Light Rain 73 22.8 65 18.3 76 76 SSW 8 13 30.06 1018 10 16.0934 0 0.0254
3:54 pm 15:54 Cloudy 75 23.9 65 18.3 71 71 SSW 13 20 30.05 1018 10 16.0934 0 0.0254
4:54 pm 16:54 Cloudy 75 23.9 67 19.4 76 76 S 5 7 30.02 1017 10 16.0934 0 0
5:54 pm 17:54 Cloudy 76 24.4 64 17.8 67 67 SW 7 11 30.03 1017 10 16.0934 0 0
6:54 pm 18:54 Sunny 75 23.9 64 17.8 69 69 SW 8 13 30.03 1017 10 16.0934 0 0
7:54 pm 19:54 Sunny 72 22.2 65 18.3 79 79 S 5 7 30.02 1017 10 16.0934 0 0
8:54 pm 20:54 Clear 69 20.6 63 17.2 81 81 S 6 9 30.01 1016 10 16.0934 0 0
9:54 pm 21:54 Clear 69 20.6 62 16.7 78 78 S 6 9 30.03 1017 10 16.0934 0 0
10:54 pm 22:54 Clear 67 19.4 62 16.7 84 84 S 6 9 30.04 1017 10 16.0934 0 0
11:54 pm 23:54 Clear 68 20 63 17.2 84 84 Calm 30.05 1018 10 16.0934 0 0

Powered by AerisWeather